www.pogodaiklimat.ru

Погода и климат >> Архив погоды >> Иран >> Tabas


ПОГОДА в Tabas

  • Прогноз погоды в Tabas
  • Монитор погоды в Tabas
  • Климат города

АРХИВ ПОГОДЫ в Tabas

Время (UTC), дата Ветер
(напр.,м/с)
 
Видим.   Явления Облачность Т
(С)
Тd
(С)
f
(%)
Тe
(С)
Тes
(С)
Комфортность P
(гПа)
Po
(гПа)
Тmin
(С)
Tmax
(С)
R
(мм)
R24
(мм)
S
(см)
09 11.08 С 3 15 км ясно +42.0 -0.2 7 +38 +54 опасность
солнечного
удара
1000.7 926.6
12 11.08 С 4 15 км ясно +44.0 +0.9 7 +40 +45 очень
жарко
998.7 924.5
15 11.08 С 4 15 км ясно +41.0 +2.3 9 +37 +37 очень
жарко
999.1 924.6 +44.5
18 11.08 СВ 4 10 км ясно +38.5 +4.1 12 +35 +35 очень
жарко
1000.5 926.1
21 11.08 В 4 10 км ясно +35.9 +9.7 20 +35 +35 очень
жарко
1000.7 926.8
00 12.08 СВ 4 10 км ясно +34.1 +9.5 22 +33 +33 жарко 1001.2 927.2
03 12.08 В 4 3000 м мгла ясно +31.7 +10.8 28 +32 +33 жарко 1003.2 928.5 +31.3
06 12.08 З 2 4000 м пыль ясно +37.4 +10.0 19 +36 +51 опасность
солнечного
удара
1003.0 928.6
09 12.08 З 3 5000 м пыль ясно +40.0 +9.6 16 +38 +54 опасность
солнечного
удара
1000.7 926.5
12 12.08 С 5 5000 м пыль ясно +42.1 +10.0 15 +41 +45 опасность
перегрева
998.2 924.2
15 12.08 СВ 5 7000 м пыль ясно +38.6 +10.6 19 +38 +38 очень
жарко
998.7 924.0 +42.6
18 12.08 СВ 3 10 км ясно +36.3 +10.5 21 +35 +35 очень
жарко
998.7 924.4
21 12.08 В 6 10 км ясно +33.2 +9.3 23 +32 +32 жарко 997.9 923.6
00 13.08 СВ 5 10 км ясно +32.3 +7.1 21 +31 +31 жарко 997.5 923.3
03 13.08 ЮВ 2 10 км ясно +30.6 +8.0 24 +30 +32 жарко 999.1 924.2 +29.0
06 13.08 З 2 10 км ясно +35.7 +7.4 18 +34 +48 очень
жарко
999.3 924.7
09 13.08 Ю 3 15 км ясно +40.0 +0.8 9 +36 +52 опасность
солнечного
удара
997.0 922.6
12 13.08 СВ 3 15 км ясно +43.7 -5.0 5 +40 +46 очень
жарко
995.2 921.2
15 13.08 СВ 4 15 км ясно +39.6 -10.6 4 +35 +35 очень
жарко
995.6 920.9 +43.9
18 13.08 СВ 5 15 км ясно +35.3 -11.9 4 +31 +31 жарко 996.1 921.4
21 13.08 В 4 15 км ясно +31.4 -11.1 6 +27 +27 жарко 996.5 921.8
00 14.08 В 3 12 км ясно +29.2 -11.6 6 +25 +25 комфорт 996.6 922.1
03 14.08 ЮВ 3 15 км ясно +29.0 -9.5 7 +25 +27 комфорт 999.0 923.8 +26.6
06 14.08 Ю 3 12 км ясно +33.8 -10.4 5 +29 +41 жарко 1000.4 925.2
09 14.08 ЮВ 2 12 км ясно +38.9 -11.1 4 +34 +53 опасность
солнечного
удара
998.9 923.9
12 14.08 ЮЗ 3 12 км ясно +41.3 -13.0 3 +37 +43 очень
жарко
996.8 922.0
15 14.08 З 2 12 км ясно +39.1 -9.9 4 +34 +34 очень
жарко
997.0 921.9 +42.3
18 14.08 штиль 0 12 км ясно +32.8 -11.0 5 +28 +28 жарко 997.9 922.6
21 14.08 В 2 12 км ясно +29.8 -13.1 5 +25 +25 комфорт 998.0 922.9
00 15.08 ЮВ 2 12 км ясно +28.4 -5.8 10 +25 +25 комфорт 998.4 923.4
03 15.08 ЮВ 3 12 км ясно +29.1 -3.7 12 +26 +28 жарко 1000.4 925.1 +26.6
06 15.08 Ю 2 12 км ясно +35.2 -4.0 8 +31 +45 жарко 1001.9 926.5
09 15.08 С 2 12 км ясно +40.4 -5.4 5 +36 +55 опасность
солнечного
удара
1000.0 925.0
12 15.08 З 3 12 км ясно +41.5 -6.0 5 +37 +43 очень
жарко
998.1 923.2
15 15.08 СЗ 3 12 км ясно +39.5 -7.2 5 +35 +35 очень
жарко
998.4 923.3 +42.3
18 15.08 СВ 4 10 км ясно +35.4 -4.4 8 +31 +31 жарко 998.9 924.0
21 15.08 Ю 3 10 км ясно +34.3 -5.4 8 +30 +30 жарко 999.0 924.6
00 16.08 В 3 10 км ясно +30.2 -5.1 10 +27 +27 жарко 999.4 924.6
03 16.08 штиль 0 10 км ясно +30.6 -3.9 10 +27 +29 жарко 1002.5 927.3 +28.8
06 16.08 штиль 0 10 км ясно +36.1 -2.2 9 +32 +51 опасность
солнечного
удара
1003.7 928.6
09 16.08 З 3 12 км ясно +39.4 -2.2 7 +35 +51 опасность
солнечного
удара
1001.7 927.0
12 16.08 СВ 4 12 км ясно +42.4 -0.4 7 +39 +43 очень
жарко
1000.1 925.4
15 16.08 С 4 12 км ясно +39.6 +0.5 9 +36 +36 очень
жарко
1000.2 925.2 +43.1
18 16.08 СВ 5 10 км ясно +37.1 +0.4 10 +33 +33 жарко 1001.4 926.7
21 16.08 СВ 5 10 км ясно +34.2 +2.3 13 +31 +31 жарко 1001.7 926.8
00 17.08 В 3 10 км ясно +30.8 +1.2 15 +28 +28 жарко 1002.0 927.2
03 17.08 В 2 10 км ясно +30.7 +2.8 17 +28 +30 жарко 1003.3 928.1 +29.2
06 17.08 З 2 10 км ясно +36.6 +3.9 13 +34 +48 очень
жарко
1003.0 928.3
09 17.08 СЗ 4 10 км ясно +40.0 +1.6 9 +36 +49 очень
жарко
1000.3 925.8
12 17.08 СВ 6 10 км ясно +43.0 -0.8 7 +39 +42 очень
жарко
998.3 923.9
15 17.08 СВ 4 10 км ясно +39.6 -0.4 8 +36 +36 очень
жарко
998.2 923.4 +43.5
18 17.08 СВ 2 12 км ясно +35.2 0.0 11 +32 +32 жарко 998.4 923.7
21 17.08 В 5 12 км ясно +33.9 +0.9 12 +31 +31 жарко 997.9 923.5
00 18.08 В 2 12 км ясно +29.1 +0.4 16 +27 +27 жарко 998.5 923.9
03 18.08 В 3 12 км ясно +29.9 +0.6 15 +27 +29 жарко 1000.2 925.1 +27.9

 

Местоположение метеостанции Tabas (Иран): широта 33.60 долгота 56.92 высота над уровнем моря 711 м.

В архиве по умолчанию представлена погода в Tabas за последнюю неделю. Архивные данные за месяц целиком и за предыдущие месяцы, начиная с января 2011 года, Вы можете получить, выбрав интересующий диапазон дат из раскрывающегося списка и нажав кнопку "Ввод!".


*Определитесь, кто Вы:
робот инопланетянин человек

Внимание! Время в таблицах - всемирное. Для получения местного времени необходимо прибавить поправку, которая в Tabas равна 3.5 ч.

Смотрите также архив погоды в соседних городах и на ближайших метеорологических станциях:

Погода в Ferdous (Иран) (125 км)
Погода в Khor (Иран) (171 км)
Погода в Birjand (Иран) (227 км)
Погода в Kashmar (Иран) (228 км)
Погода в Torbat-Heydarieh (Иран) (281 км)
Погода в Sabzevar (Иран) (299 км)
Погода в Yazd (Иран) (311 км)
Погода в Shahrud (Иран) (361 км)
Погода в Nehbandan (Иран) (371 км)
Погода в Kerman (Иран) (373 км)

Пояснения к столбцам:

Ветер - указаны скорость ветра в м/с - средняя за 10 мин, порывы в срок и между сроками (в фигурных скобках) и направление, откуда дует ветер: С - северный, СВ - северо-восточный, В - восточный, ЮВ - юго-восточный, Ю - южный, ЮЗ - юго-западный, З - западный, СЗ - северо-западный.
Видимость - горизонтальная дальность видимости в метрах или километрах. При видимости от 1 до 10 км при отсутствии осадков обычно наблюдается дымка, при ухудшении видимости до 1 км и менее - туман. В сухую погоду видимость может ухудшаться дымом, пылью или мглою.
Явления - указаны атмосферные явления, наблюдавшиеся в срок или в последний час перед сроком; фигурными скобками обозначены явления, наблюдавшиеся между сроками (за 1-3 часа до срока); квадратными скобками обозначены град или гололедные отложения с указанием их диаметра в мм.
Облачность - указаны через наклонную черту общая и нижняя облачность в баллах и высота нижней границы облаков в метрах; квадратными скобками обозначены формы облаков: Ci - перистые, Cs - перисто-слоистые, Cc - перисто-кучевые, Ac - высококучевые, As - высокослоистые, Sc - слоисто-кучевые, Ns - слоисто-дождевые, Cu - кучевые, Cb - кучево-дождевые. Подробнее классификацию облаков см. в Атласе облаков (PDF).
T - Температура воздуха - температура, измеренная на высоте 2 м над землей.
Td - Температура точки росы - температура, при понижении до которой содержащийся в воздухе водяной пар достигнет насыщения.
f - Относительная влажность воздуха - влажноcть воздуха, измеренная на высоте 2 м над землей.
Te - Эффективная температура - температура, которую ощущает одетый по сезону человек в тени. Характеристика душности погоды. При расчете учитывается влияние влажности воздуха и скорости ветра на теплоощущения человека.
Tes - Эффективная температура на солнце - температура, которую ощущает человек, с поправкой на солнечный нагрев. Характеристика знойности погоды. Зависит от высоты солнца над горизонтом, облачности и скорости ветра. Ночью, в пасмурную погоду, а также при ветре 12 м/с и более поправка равна нулю.
P - Атмосферное давление - приведенное к уровню моря атмосферное давление.
Po - Атмосферное давление - измеренное на уровне метеостанции атмосферное давление.
Tmin - Минимальная температура - минимум температуры воздуха на высоте 2 м над землей.
Tmax - Максимальная температура - максимум температуры воздуха на высоте 2 м над землей.
R - Количество осадков - Количество выпавших осадков за период времени, мм. При наведении курсора мыши на число - период времени, за который выпало указанное количество осадков.
R24 - Количество осадков - Количество выпавших осадков за 24 часа, мм.
S - Снежный покров - Высота снежного покрова, см. При наведении курсора мыши на число - состояние снежного покрова и степень покрытия местности в баллах.